Airfield :
LOGIN :

Register | Disclaimer

   EN    FR    IT 

 










Legend :    VFR   Marginal VFR   IFR   Intensive IFR   Very Intensive IFR
Visi :
Ceiling :
>= 8 km
>= 3000ft
5 to 8 km
1000 to 3000 ft
1500m to 5 km
500 to 1000 ft
800 to 1500m
200 to 500 ft
< 800m
< 200 ft
Symbols :   Thunderstorms  Fog  Heavy snow  Heavy precipitations  Wind > 20 kt
SIGMETs :     Misc.  Thunderstorms  Icing  Turbulence  Mountain Waves  Volcanic Ashes






- Airport Elevation : 2265 ft
- IATA code : CZL


DABC - Mohamed Boudiaf Int. Constantine

CURRENT METAR :
  • 282100Z 11003KT 9999 FEW040 SCT100 18/09 Q1021

EXPIRED METARs :
  • 282000Z 05002KT 9999 FEW030TCU SCT040 19/09 Q1021
  • 281900Z 01003KT 9999 FEW030TCU SCT040 20/08 Q1021

TAF TAF DABC
Valid from the 28 at 18:00 until the 29 at 18:00 UTC


281700Z 2818/2918 06010KT 9999 FEW033 SCT040
PROB30
TEMPO 2818/2821 FEW030TCU
BECMG 2819/2821 14008KT
PROB30
TEMPO 2903/2909 5000 RA FEW023CB
PROB40
TEMPO 2914/2918 5000 -TSRA FEW023CB BKN020



MET'MAP, your aeronautical weather chart ! - Copyright ORBIFLY December 2007 - Disclaimer

ORBIFLY MET'MAP TEAM :

Programming & Development : Alexandra Zaïnal
Concept & original design : Baudouin d'Aumeries
Assistance for programming : Marc-Olivier Méhu
Technical & hardware support : Manuel Goepfert

Contact : metmap@orbifly.com




SOURCES & CREDITS :

   NOAA